SDG075 LDRI-LIBD

Flight info

Callsign SDG075
Flight time N/A
Altitude 31000
Route CRE DCT ULPIN DCT ZDA DCT XOLTA DCT VIE L612 PISIP
Aircraft B738/M-SDG075/L

Departure

Time 2026-04-27 10:46
Airport Rijeka Airport (LDRI)

Arrival

Time N/A
Airport Bari Karol Wojtyła International Airport (LIBD)
Time Latitude Longitude Altitude Speed Heading
2026-04-27 10:34 45.21878 14.57163 264 ft 0 kts 95°
2026-04-27 10:35 45.21879 14.57156 264 ft 2 kts 95°
2026-04-27 10:35 45.21880 14.57133 264 ft 2 kts 95°
2026-04-27 10:36 45.21881 14.57110 264 ft 2 kts 98°
2026-04-27 10:36 45.21885 14.57090 264 ft 1 kts 125°
2026-04-27 10:36 45.21888 14.57083 264 ft 0 kts 130°
2026-04-27 10:40 45.21871 14.57113 264 ft 11 kts 130°
2026-04-27 10:40 45.21798 14.57182 264 ft 13 kts 160°
2026-04-27 10:40 45.21714 14.57194 263 ft 7 kts 181°
2026-04-27 10:40 45.21667 14.57193 263 ft 7 kts 181°
2026-04-27 10:41 45.21619 14.57192 262 ft 7 kts 180°
2026-04-27 10:41 45.21571 14.57200 262 ft 8 kts 161°
2026-04-27 10:41 45.21512 14.57248 262 ft 11 kts 148°
2026-04-27 10:41 45.21445 14.57310 260 ft 12 kts 144°
2026-04-27 10:42 45.21378 14.57377 259 ft 12 kts 144°
2026-04-27 10:42 45.21313 14.57443 259 ft 11 kts 144°
2026-04-27 10:42 45.21247 14.57512 257 ft 12 kts 143°
2026-04-27 10:42 45.21176 14.57585 256 ft 13 kts 144°
2026-04-27 10:43 45.21106 14.57657 256 ft 12 kts 144°
2026-04-27 10:43 45.21038 14.57726 255 ft 12 kts 144°
2026-04-27 10:43 45.20971 14.57793 255 ft 12 kts 144°
2026-04-27 10:43 45.20906 14.57858 256 ft 11 kts 145°
2026-04-27 10:44 45.20841 14.57917 255 ft 11 kts 153°
2026-04-27 10:44 45.20789 14.57943 255 ft 0 kts 162°
2026-04-27 10:44 45.20783 14.57951 255 ft 2 kts 132°
2026-04-27 10:44 45.20782 14.57965 255 ft 1 kts 88°
2026-04-27 10:45 45.20790 14.57975 255 ft 2 kts 22°
2026-04-27 10:45 45.20802 14.57967 255 ft 0 kts 326°
2026-04-27 10:45 45.20804 14.57965 255 ft 1 kts 326°
2026-04-27 10:45 45.20820 14.57950 255 ft 6 kts 326°
2026-04-27 10:46 45.21095 14.57668 256 ft 98 kts 323°
2026-04-27 10:46 45.21878 14.56855 351 ft 174 kts 323°
2026-04-27 10:46 45.22924 14.55792 1275 ft 186 kts 325°
2026-04-27 10:46 45.23923 14.54709 2728 ft 188 kts 307°
2026-04-27 10:47 45.24557 14.52965 3395 ft 212 kts 300°
2026-04-27 10:47 45.25481 14.51157 3702 ft 241 kts 311°
2026-04-27 10:47 45.26555 14.49235 4277 ft 256 kts 302°
2026-04-27 10:47 45.27034 14.46773 5037 ft 267 kts 268°
2026-04-27 10:48 45.26547 14.44247 6048 ft 267 kts 238°
2026-04-27 10:48 45.25309 14.42307 6702 ft 267 kts 210°
2026-04-27 10:48 45.23592 14.41526 7000 ft 266 kts 183°
2026-04-27 10:48 45.21700 14.41424 7001 ft 270 kts 179°
2026-04-27 10:49 45.19851 14.41365 6992 ft 268 kts 180°
2026-04-27 10:49 45.17997 14.41308 6995 ft 265 kts 179°
2026-04-27 10:49 45.16160 14.41276 6995 ft 264 kts 180°
2026-04-27 10:49 45.14330 14.41182 7001 ft 263 kts 181°
2026-04-27 10:50 45.12505 14.41043 7003 ft 263 kts 181°
2026-04-27 10:50 45.10673 14.40888 7011 ft 264 kts 181°
2026-04-27 10:50 45.08801 14.40883 7149 ft 277 kts 176°
2026-04-27 10:50 45.06846 14.40976 8035 ft 282 kts 176°
2026-04-27 10:51 45.04867 14.41076 9013 ft 287 kts 177°
2026-04-27 10:51 45.02856 14.41170 9686 ft 291 kts 178°
2026-04-27 10:51 45.00830 14.41257 10003 ft 293 kts 178°
2026-04-27 10:51 44.98777 14.41338 10001 ft 296 kts 178°
2026-04-27 10:52 44.96721 14.41418 10011 ft 295 kts 178°
2026-04-27 10:52 44.94677 14.41494 10003 ft 294 kts 178°
2026-04-27 10:52 44.92635 14.41569 10018 ft 294 kts 178°
2026-04-27 10:52 44.90606 14.41855 9989 ft 294 kts 161°
2026-04-27 10:53 44.88857 14.43271 10036 ft 291 kts 140°
2026-04-27 10:53 44.85768 14.46976 10022 ft 292 kts 138°
2026-04-27 10:53 44.84194 14.48886 10140 ft 309 kts 138°
2026-04-27 10:54 44.82490 14.50945 10410 ft 335 kts 139°
2026-04-27 10:54 44.80684 14.53112 11089 ft 345 kts 139°
2026-04-27 10:54 44.78842 14.55312 11933 ft 350 kts 139°
2026-04-27 10:54 44.76972 14.57538 12799 ft 354 kts 139°
2026-04-27 10:55 44.75076 14.59793 13649 ft 360 kts 139°
2026-04-27 10:55 44.73147 14.62083 14432 ft 365 kts 139°
2026-04-27 10:55 44.71200 14.64393 15219 ft 368 kts 139°